Regional Weather Roundup
Issued by NWS

Home | Current Version | Previous Version | Text Only | Print | Product List | Glossary On
Versions: 1 2 3 4 5 6 7 8 9 10 11 12 13 14 15 16 17 18 19 20 21 22 23 24 25 26 27 28 29 30 31 32 33 34 35 36 37 38 39 40 41 42 43 44 45 46 47 48 49 50
000
ASUS44 KOUN 232100
RWROK

WEATHER ROUNDUP FOR OKLAHOMA
NATIONAL WEATHER SERVICE NORMAN OK
300 PM CST THU FEB 23 2017

NOTE: "FAIR" INDICATES FEW OR NO CLOUDS BELOW 12,000 FEET WITH NO
      SIGNIFICANT WEATHER AND/OR OBSTRUCTIONS TO VISIBILITY.

OKZ001>007-009>012-014-015-017-232200-
NORTHWEST OKLAHOMA AND THE PANHANDLE

CITY           SKY/WX    TMP DP  RH WIND       PRES   REMARKS
GAGE           SUNNY     84  21  10 SW31G43   29.33F
GUYMON         SUNNY     78   8   7 SW36G46   29.32F
ENID/WOODRING  MOSUNNY   81  50  34 S22       29.32F
$$

OKZ016-021>023-033>039-044-045-232200-
SOUTHWEST OKLAHOMA

CITY           SKY/WX    TMP DP  RH WIND       PRES   REMARKS
LAWTON/REGL    SUNNY     86  44  23 S13       29.40F
FREDERICK      SUNNY     89  42  19 W20G25    29.36F
CLINTON        SUNNY     83  36  18 SW20G33   29.38F
HOBART         SUNNY     82  50  32 S18       29.38F
ALTUS AFB      SUNNY     89  29  11 SW22G30   29.38F
$$

OKZ018>020-024>031-232200-
CENTRAL OKLAHOMA

CITY           SKY/WX    TMP DP  RH WIND       PRES   REMARKS
OKLAHOMA CITY  MOSUNNY   87  38  17 SW17      29.39F
OKC/WILEY POST SUNNY     85  41  21 SW20G28   29.39F
STILLWATER     SUNNY     87  38  17 SW20G31   29.35F
GUTHRIE        SUNNY     85  39  19 SW16G28   29.36F
$$

OKZ008-013-054>072-232200-
NORTHEAST OKLAHOMA

CITY           SKY/WX    TMP DP  RH WIND       PRES   REMARKS
TULSA          PTSUNNY   84  44  24 S14G22    29.35F
TULSA/JONES    MOSUNNY   84  42  22 S15       29.37F
PONCA CITY     MOSUNNY   82  45  27 S8        29.34F
BARTLESVILLE   SUNNY     85  43  22 S15G23    29.37F
MUSKOGEE       MOSUNNY   85  42  22 S23G33    29.41F
$$

OKZ032-040>043-046>053-073>077-232200-
SOUTH CENTRAL/SOUTHEAST OKLAHOMA

CITY           SKY/WX    TMP DP  RH WIND       PRES   REMARKS
MCALESTER      SUNNY     87  43  21 S18G32    29.44F
$$





USA.gov is the U.S. government's official web portal to all federal, state and local government web resources and services.